GW5208 Weather Reports


Display with metric or nautical units.
time (UTC)temp
F
wind
direction
speed
MPH
gust
MPH
rain 1hr
in
rain 24hr
in
rain mn
in
humidity
%
barometer
mb
20260503190009 71 261 7.0 14.0 0.00 0.01 0.00 19 1012.2
20260503184515 71 275 6.0 14.0 0.00 0.01 0.00 19 1012.4
20260503183018 70 289 2.0 12.0 0.00 0.01 0.00 1012.5
20260503181506 70 293 4.0 13.0 0.00 0.01 0.00 21 1012.8
20260503180008 70 264 5.0 10.0 0.00 0.01 0.00 21 1013.1
20260503174512 69 359 5.0 13.0 0.00 0.01 0.00 23 1013.1
20260503173017 68 295 4.0 9.0 0.00 0.01 0.00 23 1013.5
20260503171526 67 332 3.0 7.0 0.00 0.01 0.00 26 1013.5
20260503081526 44 259 0.0 2.0 0.00 0.01 0.00 79 1016.2
20260503071525 46 231 2.0 4.0 0.00 0.01 0.00 75 1016.3
20260503054535 48 228 1.0 2.0 0.00 0.01 0.01 72 1016.4
20260503053023 49 174 1.0 1.0 0.00 0.01 0.01 69 1016.5
20260503051522 50 170 2.0 3.0 0.00 0.01 0.01 68 1016.5
20260503050029 51 178 2.0 3.0 0.00 0.01 0.01 66 1016.6
20260503044527 50 179 0.0 6.0 0.00 0.01 0.01 71 1016.6
20260503043032 51 199 0.0 2.0 0.00 0.01 0.01 71 1016.9
20260503041516 52 116 0.0 2.0 0.01 0.01 0.01 69 1016.8
20260503040003 54 69 0.0 3.0 0.01 0.01 0.01 64 1016.8
20260503034508 56 67 5.0 8.0 0.01 0.01 0.01 59 1016.9
20260503033019 57 158 3.0 10.0 0.01 0.01 0.01 51 1016.7
20260503031514 57 20 7.0 19.0 0.00 0.00 0.00 54 1017.9
20260503030004 58 285 1.0 3.0 0.00 0.00 0.00 39 1016.8
20260503024520 59 285 0.0 2.0 0.00 0.00 0.00 37 1016.1
20260503023008 61 285 0.0 0.0 0.00 0.00 0.00 35 1016.0
20260503021535 64 285 0.0 2.0 0.00 0.00 0.00 34 1016.0
20260503020015 65 285 1.0 2.0 0.00 0.00 0.00 32 1015.8
20260503014504 65 285 0.0 2.0 0.00 0.00 0.00 32 1015.9
20260503013008 64 285 0.0 2.0 0.00 0.00 0.00 33 1015.8
20260503011515 65 285 0.0 2.0 0.00 0.00 0.00 32 1016.0
20260503010018 68 253 2.0 5.0 0.00 0.00 0.00 31 1016.1
20260503004522 66 161 0.0 4.0 0.00 0.00 0.00 32 1016.2
20260503003012 65 158 0.0 4.0 0.00 0.00 0.00 33 1016.4
20260503001512 65 160 0.0 2.0 0.00 0.00 0.00 33 1016.5
20260503000015 65 160 0.0 3.0 0.00 0.00 0.00 33 1016.6
20260502234521 65 150 2.0 8.0 0.00 0.00 0.00 33 1016.8
20260502233020 66 24 1.0 4.0 0.00 0.00 0.00 32 1016.9
20260502231514 66 70 4.0 8.0 0.00 0.00 0.00 32 1017.0
20260502230013 67 98 2.0 11.0 0.00 0.00 0.00 33 1017.3
20260502224531 67 60 0.0 6.0 0.00 0.00 0.00 32 1017.5
20260502223022 66 76 1.0 3.0 0.00 0.00 0.00 31 1017.6
20260502221524 66 61 1.0 4.0 0.00 0.00 0.00 32 1017.8
20260502220017 66 278 2.0 4.0 0.00 0.00 0.00 32 1018.1
20260502214517 67 322 0.0 5.0 0.00 0.00 0.00 32 1018.2
20260502213024 67 130 0.0 3.0 0.00 0.00 0.00 32 1018.4
20260502211524 65 127 1.0 3.0 0.00 0.00 0.00 33 1018.6
20260502210010 65 266 2.0 6.0 0.00 0.00 0.00 34 1018.8
20260502204527 66 27 3.0 6.0 0.00 0.00 0.00 1018.9
20260502203021 65 356 2.0 6.0 0.00 0.00 0.00 32 1019.1
20260502201527 67 169 2.0 7.0 0.00 0.00 0.00 33 1019.3
20260502200045 65 293 2.0 6.0 0.00 0.00 0.00 34 1019.4
20260502194514 64 5 2.0 11.0 0.00 0.00 0.00 35 1019.5
20260502193024 64 286 1.0 5.0 0.00 0.00 0.00 36 1019.7
20260502191524 64 269 2.0 5.0 0.00 0.00 0.00 35 1019.8